Location: Bussy-Saint-Georges
(48.8410°N, 2.7017°E)
Time: 22:40:53
(UTC+00:00)

Cosmos 1470 - Pass Details

Date: 18 October 2021
Orbit: 519 x 541 km, 82.5° (Epoch: 07 December)

Event Time Altitude Azimuth Distance (km) Brightness Sun altitude
Rises 17:35:10 0° 200° (SSW) 2,691 6.7 -7.6°
Reaches altitude 10° 17:37:21 10° 205° (SSW) 1,804 5.9 -7.9°
Maximum altitude 17:41:15 53° 283° (WNW) 675 3.7 -8.6°
Drops below altitude 10° 17:45:09 10° 1° (N) 1,815 5.4 -9.2°
Sets 17:47:22 0° 6° (N) 2,710 6.2 -9.6°
